Angoon, AK

2:29 AM AKDT on October 16, 2019 (GMT -0800)
Angoon

Weather History for PAGN - May, 2019

Change the Weather History Date:

Tuesday, May 7, 2019

  Actual Average (PASI) Record (PASI)
Temperature  
Mean Temperature 48 °F 46 °F  
Max Temperature 51 °F 52 °F 75 °F (1981)
Min Temperature 46 °F 41 °F 30 °F (1949)
Degree Days  
Heating Degree Days 16 19  
Month to date heating degree days 136  
Moisture  
Dew Point 46 °F    
Average Humidity 92    
Maximum Humidity 96    
Minimum Humidity 82    
Precipitation  
Precipitation 0.14 in 0.13 in 1.18 in (1969)
Month to date precipitation 0.94  
Year to date precipitation 26.31  
Sea Level Pressure  
Sea Level Pressure 30.23 in    
Wind  
Wind Speed 4 mph (ENE)    
Max Wind Speed 7 mph    
Max Gust Speed -    
Visibility 10 miles    
Events Rain    
T = Trace of Precipitation, MM = Missing Value Source: NWS Daily Summary

Daily Weather History Graph

Daily Weather History Graph

Search for Another Location

Airport or City:

Astronomy

May. 07, 2019 Rise Set
Actual Time 4:54 AM AKDT 8:57 PM AKDT
Civil Twilight 4:04 AM AKDT 9:47 PM AKDT
Nautical Twilight 2:49 AM AKDT 11:04 PM AKDT
Astronomical Twilight 1:27 AM AKDT 12:22 AM AKDT
Moon 6:50 AM AKDT (5/7) No Moon Set
Length of Visible Light 17h 43m
Length of Day
16h 02m
Waxing Crescent, 9% of the Moon is Illuminated
May 7
Waxing Crescent
May 11
First Quarter
May 18
Full
May 26
Last Quarter
Jun 3
New

Hourly Weather History & Observations

Time (AKDT) Temp. Windchill Dew Point Humidity Pressure Visibility Wind Dir Wind Speed Gust Speed Precip Events Conditions
12:56 AM 46.0 °F 43.9 °F 44.1 °F 93% 30.10 in 10.0 mi ENE 4.6 mph - 0.01 in Rain Light Rain
1:56 AM 46.0 °F 43.1 °F 44.1 °F 93% 30.11 in 10.0 mi ENE 5.8 mph - 0.02 in Rain Light Rain
2:56 AM 46.0 °F 42.5 °F 44.1 °F 93% 30.11 in 10.0 mi ENE 6.9 mph - 0.01 in Rain Light Rain
3:56 AM 46.0 °F 43.9 °F 44.1 °F 93% 30.11 in 10.0 mi ENE 4.6 mph - 0.02 in Rain Light Rain
4:56 AM 46.0 °F 43.9 °F 44.1 °F 93% 30.12 in 10.0 mi ENE 4.6 mph - 0.01 in Rain Light Rain
5:56 AM 46.0 °F 43.1 °F 44.1 °F 93% 30.13 in 10.0 mi ENE 5.8 mph - 0.02 in Rain Light Rain
6:56 AM 46.0 °F 43.9 °F 44.1 °F 93% 30.14 in 10.0 mi ENE 4.6 mph - 0.00 in Rain Light Rain
7:56 AM 46.0 °F 43.1 °F 45.0 °F 96% 30.15 in 10.0 mi ENE 5.8 mph - 0.01 in Rain Light Rain
8:56 AM 46.9 °F - 45.0 °F 93% 30.17 in 10.0 mi ENE 4.6 mph - 0.01 in Rain Light Rain
9:56 AM 48.0 °F - 46.0 °F 93% 30.18 in 10.0 mi Calm Calm - 0.01 in Rain Light Rain
10:56 AM 48.0 °F - 46.0 °F 93% 30.20 in 10.0 mi Variable 4.6 mph - 0.01 in Rain Light Rain
11:56 AM 48.9 °F - 46.0 °F 90% 30.22 in 10.0 mi Variable 3.5 mph - 0.00 in Rain Light Rain
12:56 PM 48.9 °F - 46.0 °F 90% 30.23 in 10.0 mi East 4.6 mph - 0.00 in   Overcast
1:56 PM 50.0 °F - 46.0 °F 86% 30.25 in 10.0 mi Variable 3.5 mph - N/A   Overcast
2:56 PM 50.0 °F - 46.0 °F 86% 30.25 in 10.0 mi Calm Calm - N/A   Overcast
3:04 PM 51.8 °F - 46.4 °F 82% 30.29 in 10.0 mi East 4.6 mph - N/A   Overcast
3:56 PM 51.1 °F - 46.0 °F 83% 30.26 in 10.0 mi East 3.5 mph - N/A   Overcast
4:56 PM 48.9 °F - 46.9 °F 93% 30.27 in 10.0 mi SW 3.5 mph - 0.00 in   Overcast
5:56 PM 48.9 °F - 46.9 °F 93% 30.28 in 3.0 mi Calm Calm - 0.00 in   Overcast
6:38 PM 48.2 °F - 46.4 °F 93% 30.32 in 10.0 mi Calm Calm - 0.00 in   Overcast
6:56 PM 48.9 °F - 46.9 °F 93% 30.29 in 10.0 mi Calm Calm - 0.00 in   Overcast
7:56 PM 48.9 °F - 46.9 °F 93% 30.29 in 9.0 mi Calm Calm - N/A   Overcast
8:56 PM 48.0 °F - 46.9 °F 96% 30.30 in 10.0 mi Calm Calm - 0.01 in Rain Light Rain
9:17 PM 48.2 °F - 46.4 °F 93% 30.34 in 10.0 mi NE 3.5 mph - 0.00 in Rain Light Rain
9:56 PM 48.0 °F - 46.0 °F 93% 30.31 in 10.0 mi ENE 3.5 mph - 0.00 in   Overcast
10:07 PM 48.2 °F - 46.4 °F 93% 30.35 in 10.0 mi Calm Calm - N/A   Overcast
10:56 PM 48.0 °F - 46.9 °F 96% 30.32 in 10.0 mi Calm Calm - N/A   Overcast
11:56 PM 48.0 °F - 46.0 °F 93% 30.33 in 10.0 mi Calm Calm - 0.00 in Rain Light Rain